2023/02/03 23:42:29+0000,-35.10,-44.45,-31.91,-46.23,-47.13,-49.39
2023/02/03 23:43:21+0000,-35.17,-46.09,-31.64,-45.94,-46.57,-50.08
2023/02/03 23:44:13+0000,-34.65,-45.06,-31.97,-45.61,-46.46,-49.70
2023/02/03 23:45:05+0000,-35.45,-45.94,-31.69,-45.99,-46.11,-51.06
2023/02/03 23:45:57+0000,-35.26,-44.40,-31.78,-44.43,-43.37,-47.82
2023/02/03 23:46:50+0000,-35.04,-45.52,-31.49,-46.36,-43.49,-49.57
2023/02/03 23:47:42+0000,-35.53,-44.98,-32.04,-43.14,-44.47,-50.77
2023/02/03 23:48:34+0000,-35.87,-45.48,-31.94,-45.38,-42.59,-51.07
2023/02/03 23:49:26+0000,-35.95,-45.04,-32.22,-44.34,-43.41,-50.95
2023/02/03 23:50:18+0000,-36.25,-44.72,-31.74,-45.94,-43.55,-49.57
2023/02/03 23:51:17+0000,-35.06,-44.49,-32.02,-45.46,-43.53,-51.72
2023/02/03 23:52:09+0000,-36.21,-44.77,-31.94,-44.03,-43.21,-50.38
2023/02/03 23:53:01+0000,-35.32,-45.70,-32.11,-44.68,-43.15,-51.23
2023/02/03 23:53:53+0000,-35.49,-44.97,-31.73,-45.16,-43.45,-49.62
2023/02/03 23:54:45+0000,-36.03,-44.32,-32.45,-45.38,-43.27,-49.50
2023/02/03 23:55:38+0000,-35.21,-45.54,-32.64,-45.63,-43.07,-49.70
2023/02/03 23:56:30+0000,-35.26,-45.53,-31.67,-45.32,-42.85,-49.82
2023/02/03 23:57:22+0000,-35.78,-45.58,-32.18,-45.36,-44.64,-49.16
2023/02/03 23:58:14+0000,-35.43,-46.04,-32.08,-46.22,-43.56,-49.89
2023/02/03 23:59:06+0000,-34.65,-44.41,-31.52,-45.65,-43.42,-50.21
2023/02/03 23:59:58+0000,-35.15,-45.07,-32.18,-44.95,-43.21,-51.24
2023/02/04 00:00:54+0000,-34.70,-45.58,-32.26,-45.08,-43.62,-50.21
2023/02/04 00:01:54+0000,-34.96,-45.85,-32.10,-44.89,-43.79,-50.16
2023/02/04 00:02:46+0000,-35.50,-45.05,-32.23,-45.73,-43.51,-51.58
2023/02/04 00:03:38+0000,-35.38,-44.87,-31.77,-45.17,-43.39,-51.28
2023/02/04 00:04:30+0000,-35.87,-44.97,-30.99,-45.22,-43.89,-50.97
2023/02/04 00:05:22+0000,-35.41,-45.67,-31.55,-46.61,-44.19,-49.71
2023/02/04 00:06:14+0000,-35.41,-46.13,-31.86,-45.09,-44.32,-51.23
2023/02/04 00:07:06+0000,-35.65,-46.52,-31.16,-44.88,-43.44,-50.49
2023/02/04 00:07:58+0000,-36.65,-44.51,-32.08,-45.35,-44.46,-49.31
2023/02/04 00:08:50+0000,-34.91,-45.62,-31.67,-45.52,-43.34,-51.25
2023/02/04 00:09:43+0000,-35.99,-45.02,-31.99,-44.26,-44.10,-51.11
2023/02/04 00:10:35+0000,-35.81,-45.00,-30.89,-44.49,-43.75,-51.47
2023/02/04 00:11:35+0000,-36.38,-45.52,-30.75,-44.63,-43.50,-51.12
2023/02/04 00:12:27+0000,-35.97,-44.77,-31.29,-45.95,-43.96,-51.12
2023/02/04 00:13:19+0000,-36.23,-43.92,-30.92,-46.45,-43.88,-50.86
2023/02/04 00:14:11+0000,-36.58,-44.39,-31.08,-44.33,-44.26,-52.02
2023/02/04 00:15:03+0000,-35.91,-44.40,-30.53,-46.43,-44.27,-51.91
2023/02/04 00:15:55+0000,-35.62,-44.38,-30.83,-45.98,-44.95,-52.10
2023/02/04 00:16:47+0000,-36.15,-43.17,-31.59,-44.19,-44.97,-51.94
2023/02/04 00:17:39+0000,-35.47,-44.09,-31.03,-44.45,-44.61,-52.04
2023/02/04 00:18:31+0000,-35.82,-43.05,-30.39,-44.85,-43.84,-51.89
2023/02/04 00:19:23+0000,-36.01,-43.92,-31.41,-45.06,-44.41,-50.71
2023/02/04 00:20:16+0000,-35.36,-43.50,-31.33,-43.61,-44.79,-51.20
2023/02/04 00:21:16+0000,-36.51,-43.21,-30.98,-43.26,-44.45,-51.79
2023/02/04 00:22:08+0000,-36.49,-44.47,-31.08,-43.99,-44.85,-50.86
2023/02/04 00:23:00+0000,-36.04,-44.02,-30.66,-44.57,-43.39,-50.21
2023/02/04 00:23:52+0000,-35.80,-44.01,-30.78,-44.55,-44.14,-50.09
2023/02/04 00:24:44+0000,-36.52,-43.94,-31.06,-43.93,-44.25,-51.20
2023/02/04 00:25:36+0000,-35.81,-45.19,-30.03,-43.58,-44.88,-50.64
2023/02/04 00:26:28+0000,-36.57,-44.49,-31.14,-43.28,-44.65,-49.64
2023/02/04 00:27:20+0000,-35.68,-43.58,-30.50,-44.01,-44.95,-50.37
2023/02/04 00:28:12+0000,-36.63,-44.53,-30.95,-44.46,-45.11,-49.92
2023/02/04 00:29:04+0000,-35.84,-44.35,-29.69,-44.81,-44.24,-50.95
2023/02/04 00:29:57+0000,-35.62,-43.90,-30.34,-42.87,-43.48,-49.39
2023/02/04 00:30:49+0000,-35.55,-43.20,-31.33,-44.50,-44.52,-49.77
2023/02/04 00:31:48+0000,-35.64,-43.81,-30.92,-44.53,-44.16,-49.36
2023/02/04 00:32:40+0000,-36.49,-44.54,-29.92,-43.75,-44.72,-50.55
2023/02/04 00:33:32+0000,-35.88,-44.90,-29.95,-43.57,-43.87,-50.31
2023/02/04 00:34:24+0000,-36.24,-44.85,-30.37,-42.95,-44.62,-50.52
2023/02/04 00:35:16+0000,-36.37,-45.16,-30.18,-43.07,-44.22,-49.84
2023/02/04 00:36:08+0000,-36.60,-44.77,-30.51,-43.34,-44.59,-49.65
2023/02/04 00:37:00+0000,-35.87,-44.57,-29.94,-43.93,-43.54,-50.58
2023/02/04 00:37:52+0000,-37.63,-44.66,-30.38,-44.09,-43.31,-49.70
2023/02/04 00:38:45+0000,-37.19,-45.17,-31.25,-42.69,-43.39,-49.63
2023/02/04 00:39:37+0000,-36.42,-45.54,-31.35,-42.21,-43.61,-49.89
2023/02/04 00:40:29+0000,-36.48,-44.19,-31.37,-42.03,-42.89,-50.25
2023/02/04 00:41:28+0000,-37.38,-44.76,-31.20,-42.28,-43.96,-50.73
2023/02/04 00:42:20+0000,-36.05,-44.31,-31.00,-43.89,-42.77,-50.31
2023/02/04 00:43:12+0000,-36.98,-44.16,-31.84,-41.66,-43.85,-50.33
2023/02/04 00:44:04+0000,-36.51,-44.46,-30.42,-44.71,-44.06,-49.99
2023/02/04 00:44:56+0000,-37.08,-44.74,-31.24,-42.94,-45.05,-49.95
2023/02/04 00:45:49+0000,-36.09,-44.60,-31.05,-44.26,-44.13,-50.28
2023/02/04 00:46:41+0000,-37.25,-43.69,-30.47,-43.57,-44.96,-50.67
2023/02/04 00:47:33+0000,-36.33,-44.01,-30.06,-43.15,-44.48,-50.42
2023/02/04 00:48:25+0000,-36.18,-42.11,-30.97,-43.42,-44.62,-50.30
2023/02/04 00:49:17+0000,-36.08,-44.23,-30.75,-43.87,-44.10,-50.09
2023/02/04 00:50:09+0000,-37.01,-43.22,-31.02,-44.31,-42.95,-50.42
2023/02/04 00:51:09+0000,-37.83,-44.32,-30.88,-42.22,-43.71,-50.47
2023/02/04 00:52:01+0000,-37.09,-44.07,-31.35,-42.53,-44.02,-50.60
2023/02/04 00:52:53+0000,-36.77,-45.08,-30.83,-43.87,-44.00,-50.32
2023/02/04 00:53:45+0000,-37.49,-43.60,-31.54,-42.61,-44.31,-50.64
2023/02/04 00:54:37+0000,-36.44,-44.63,-30.62,-42.40,-43.75,-50.35
2023/02/04 00:55:29+0000,-37.05,-43.81,-31.72,-42.49,-43.06,-50.19
2023/02/04 00:56:21+0000,-37.14,-43.41,-31.05,-44.62,-44.37,-50.48
2023/02/04 00:57:13+0000,-36.86,-42.91,-31.30,-42.33,-44.95,-50.64
2023/02/04 00:58:05+0000,-35.73,-45.41,-31.11,-44.73,-43.56,-50.41
2023/02/04 00:58:57+0000,-36.19,-43.94,-30.64,-41.91,-44.82,-50.34
2023/02/04 00:59:49+0000,-36.56,-43.72,-31.07,-42.91,-43.85,-50.12
2023/02/04 01:00:41+0000,-36.27,-43.00,-30.38,-40.25,-45.21,-50.28
2023/02/04 01:01:41+0000,-35.76,-42.51,-31.38,-39.79,-44.39,-50.90
2023/02/04 01:02:33+0000,-35.83,-44.63,-30.87,-41.61,-43.87,-50.48
2023/02/04 01:03:25+0000,-35.79,-43.72,-30.91,-40.32,-44.75,-49.61
2023/02/04 01:04:17+0000,-36.19,-43.81,-30.67,-41.30,-43.74,-50.01
2023/02/04 01:05:10+0000,-36.38,-43.39,-30.50,-38.77,-45.42,-49.60
2023/02/04 01:06:02+0000,-35.62,-44.04,-30.83,-39.76,-43.39,-50.49
2023/02/04 01:06:54+0000,-35.90,-44.27,-31.14,-40.62,-44.89,-50.21
2023/02/04 01:07:46+0000,-36.35,-42.50,-30.98,-39.54,-45.04,-50.30
2023/02/04 01:08:38+0000,-35.64,-42.53,-30.68,-39.10,-43.57,-50.99
2023/02/04 01:09:30+0000,-36.16,-44.47,-31.06,-40.36,-42.83,-50.51
2023/02/04 01:10:22+0000,-35.03,-45.06,-31.04,-40.74,-44.62,-50.01
2023/02/04 01:11:30+0000,-35.70,-42.79,-30.90,-40.00,-44.40,-50.20
2023/02/04 01:12:22+0000,-35.93,-43.02,-31.42,-40.95,-44.47,-50.17
2023/02/04 01:13:14+0000,-36.10,-42.00,-31.08,-40.01,-44.06,-50.01
2023/02/04 01:14:06+0000,-35.27,-45.20,-30.58,-38.94,-44.92,-49.93
2023/02/04 01:14:58+0000,-35.96,-44.24,-30.68,-40.57,-44.22,-49.99
2023/02/04 01:15:50+0000,-35.93,-45.35,-31.18,-41.56,-43.86,-50.22
2023/02/04 01:16:42+0000,-36.18,-42.23,-31.09,-36.53,-44.14,-50.19
2023/02/04 01:17:35+0000,-36.18,-43.97,-31.05,-40.84,-43.96,-50.29
2023/02/04 01:18:27+0000,-35.83,-43.59,-30.77,-41.29,-44.29,-49.93
2023/02/04 01:19:19+0000,-35.91,-41.83,-31.55,-42.73,-44.09,-49.85
2023/02/04 01:20:11+0000,-35.69,-42.33,-31.18,-35.83,-45.59,-50.38
2023/02/04 01:21:10+0000,-35.49,-41.34,-30.66,-40.91,-44.64,-50.62
2023/02/04 01:22:02+0000,-35.28,-43.39,-30.66,-40.80,-44.62,-50.19
2023/02/04 01:22:54+0000,-36.24,-43.72,-30.87,-41.19,-44.95,-50.86
2023/02/04 01:23:46+0000,-36.20,-42.65,-30.75,-41.35,-43.96,-49.98
2023/02/04 01:24:38+0000,-36.50,-42.65,-31.12,-40.72,-44.11,-50.82
2023/02/04 01:25:30+0000,-35.97,-41.20,-31.33,-41.79,-44.21,-50.96
2023/02/04 01:26:23+0000,-36.36,-42.48,-30.95,-41.20,-43.68,-51.00
2023/02/04 01:27:15+0000,-36.29,-42.89,-31.10,-41.25,-44.28,-51.03
2023/02/04 01:28:07+0000,-36.31,-45.87,-31.31,-40.42,-44.21,-50.87
2023/02/04 01:28:59+0000,-36.28,-42.43,-31.73,-41.48,-44.25,-50.83
2023/02/04 01:29:51+0000,-36.71,-45.21,-31.29,-40.88,-43.50,-51.38
2023/02/04 01:30:43+0000,-35.23,-39.70,-31.24,-41.03,-44.99,-50.78
2023/02/04 01:31:44+0000,-35.05,-41.53,-31.21,-40.47,-43.50,-50.87
2023/02/04 01:32:36+0000,-35.86,-42.69,-29.98,-41.51,-43.40,-50.80
2023/02/04 01:33:28+0000,-37.41,-41.54,-30.47,-42.44,-44.07,-50.70
2023/02/04 01:34:20+0000,-36.30,-43.14,-30.40,-42.35,-44.14,-50.86
2023/02/04 01:35:12+0000,-35.93,-42.66,-30.84,-41.70,-44.03,-50.82
2023/02/04 01:36:04+0000,-35.70,-40.44,-30.71,-42.30,-43.72,-51.24
2023/02/04 01:36:56+0000,-36.17,-43.04,-31.15,-42.19,-44.20,-50.85
2023/02/04 01:37:48+0000,-35.27,-42.86,-30.96,-42.09,-43.80,-50.88
2023/02/04 01:38:40+0000,-35.57,-42.58,-30.26,-42.29,-44.59,-50.80
2023/02/04 01:39:32+0000,-36.89,-42.33,-30.67,-40.95,-43.10,-50.93
2023/02/04 01:40:24+0000,-36.80,-40.87,-30.89,-42.78,-44.26,-51.01
2023/02/04 01:41:24+0000,-36.55,-41.07,-31.06,-42.95,-43.96,-50.81
2023/02/04 01:42:16+0000,-36.21,-42.65,-30.98,-41.25,-44.34,-50.66
2023/02/04 01:43:08+0000,-35.58,-45.66,-31.20,-42.97,-42.18,-51.48
2023/02/04 01:44:00+0000,-35.20,-40.12,-31.29,-42.57,-42.93,-51.47
2023/02/04 01:44:52+0000,-36.52,-44.41,-31.05,-42.05,-44.02,-51.27
2023/02/04 01:45:44+0000,-34.82,-41.97,-30.97,-42.14,-43.74,-51.37
2023/02/04 01:46:36+0000,-35.07,-40.35,-31.29,-43.42,-43.67,-51.57
2023/02/04 01:47:28+0000,-35.61,-40.81,-30.83,-40.52,-42.58,-51.80
2023/02/04 01:48:20+0000,-35.28,-43.65,-30.23,-42.96,-43.66,-51.59
2023/02/04 01:49:12+0000,-35.61,-43.08,-30.55,-42.45,-44.12,-51.70
2023/02/04 01:50:04+0000,-35.13,-43.11,-29.97,-43.14,-42.89,-51.16
2023/02/04 01:51:04+0000,-35.39,-43.99,-31.17,-42.69,-42.36,-51.53
2023/02/04 01:51:56+0000,-35.68,-41.46,-31.04,-43.01,-44.10,-51.30
2023/02/04 01:52:48+0000,-35.61,-42.90,-31.43,-42.99,-44.13,-51.47
2023/02/04 01:53:40+0000,-36.13,-43.68,-31.73,-42.28,-42.50,-52.04
2023/02/04 01:54:32+0000,-35.58,-42.44,-32.00,-42.50,-43.94,-51.49
2023/02/04 01:55:24+0000,-34.80,-41.51,-31.48,-43.17,-44.10,-51.49
2023/02/04 01:56:16+0000,-36.51,-44.67,-31.46,-41.83,-44.29,-51.30
2023/02/04 01:57:08+0000,-34.99,-44.71,-31.81,-42.61,-43.73,-52.48
2023/02/04 01:58:00+0000,-36.02,-40.39,-32.08,-43.21,-43.71,-51.40
2023/02/04 01:58:52+0000,-35.67,-45.88,-31.66,-42.49,-43.52,-51.77
2023/02/04 01:59:44+0000,-35.99,-44.12,-31.63,-42.11,-44.00,-51.48
2023/02/04 02:00:36+0000,-35.69,-41.48,-30.32,-43.97,-43.57,-51.01
2023/02/04 02:01:37+0000,-36.01,-45.13,-30.44,-42.54,-44.39,-51.69
2023/02/04 02:02:29+0000,-37.09,-42.41,-30.71,-43.18,-44.10,-52.20
2023/02/04 02:03:21+0000,-35.87,-45.05,-31.29,-43.73,-44.38,-51.74
2023/02/04 02:04:13+0000,-36.20,-40.34,-31.25,-41.65,-43.65,-51.38
2023/02/04 02:05:05+0000,-35.74,-45.83,-30.53,-41.39,-44.04,-51.58
2023/02/04 02:05:57+0000,-37.42,-45.48,-31.33,-42.44,-44.50,-51.49
2023/02/04 02:06:49+0000,-36.86,-39.31,-30.75,-41.87,-43.77,-51.87
2023/02/04 02:07:41+0000,-36.30,-42.35,-30.44,-42.40,-44.34,-51.36
2023/02/04 02:08:33+0000,-35.54,-43.30,-30.04,-44.12,-44.33,-51.68
2023/02/04 02:09:25+0000,-36.42,-42.98,-31.34,-42.89,-43.94,-51.36
2023/02/04 02:10:17+0000,-36.65,-38.60,-31.30,-44.02,-43.71,-51.36
2023/02/04 02:11:17+0000,-36.34,-43.26,-31.43,-40.98,-44.26,-51.36
2023/02/04 02:12:09+0000,-36.33,-43.99,-30.19,-43.43,-43.95,-51.09
2023/02/04 02:13:01+0000,-36.42,-39.28,-30.84,-42.54,-44.09,-51.57
2023/02/04 02:13:53+0000,-36.76,-42.14,-31.42,-42.68,-43.93,-51.35
2023/02/04 02:14:45+0000,-36.04,-44.57,-30.82,-41.71,-44.09,-51.17
2023/02/04 02:15:37+0000,-36.54,-44.74,-31.02,-42.54,-43.64,-50.96
2023/02/04 02:16:29+0000,-36.07,-42.13,-30.20,-42.67,-43.80,-51.30
2023/02/04 02:17:21+0000,-36.96,-44.69,-30.74,-43.28,-44.18,-51.14
2023/02/04 02:18:13+0000,-35.06,-40.24,-30.67,-43.03,-43.90,-51.74
2023/02/04 02:19:05+0000,-36.18,-44.21,-31.19,-43.00,-44.34,-51.22
2023/02/04 02:19:58+0000,-35.09,-42.10,-31.00,-43.73,-44.20,-51.81
2023/02/04 02:20:50+0000,-36.46,-40.26,-30.72,-43.80,-43.94,-51.68
2023/02/04 02:21:50+0000,-36.54,-42.15,-30.99,-43.89,-43.95,-51.97
2023/02/04 02:22:42+0000,-34.84,-43.34,-30.81,-42.96,-43.67,-51.65
2023/02/04 02:23:34+0000,-36.03,-42.75,-30.17,-44.36,-43.03,-52.01
2023/02/04 02:24:26+0000,-36.18,-42.13,-30.98,-43.57,-44.23,-52.04
2023/02/04 02:25:18+0000,-36.06,-43.98,-30.44,-43.35,-43.15,-51.25
2023/02/04 02:26:10+0000,-36.05,-44.60,-30.50,-43.12,-43.63,-51.88
2023/02/04 02:27:02+0000,-35.66,-42.30,-31.12,-43.11,-43.68,-51.52
2023/02/04 02:27:54+0000,-36.41,-42.66,-31.46,-44.06,-43.55,-51.91
2023/02/04 02:28:46+0000,-36.83,-44.14,-30.62,-43.66,-44.19,-52.02
2023/02/04 02:29:38+0000,-36.41,-43.52,-31.34,-43.04,-43.40,-51.77
2023/02/04 02:30:30+0000,-35.64,-42.13,-30.48,-43.50,-43.57,-53.18
2023/02/04 02:31:29+0000,-33.07,-42.79,-31.14,-44.06,-44.72,-52.92
2023/02/04 02:32:21+0000,-35.45,-45.89,-30.75,-43.69,-43.96,-52.34
2023/02/04 02:33:13+0000,-35.35,-43.71,-31.26,-44.18,-43.95,-52.85
2023/02/04 02:34:05+0000,-35.41,-41.58,-30.42,-43.61,-44.35,-52.66
2023/02/04 02:34:57+0000,-35.52,-41.19,-30.72,-42.49,-44.49,-53.75
2023/02/04 02:35:49+0000,-35.95,-42.82,-30.67,-42.56,-44.65,-53.17
2023/02/04 02:36:41+0000,-35.30,-43.86,-30.85,-41.85,-43.31,-52.68
2023/02/04 02:37:33+0000,-35.73,-41.94,-30.98,-42.95,-43.91,-53.23
2023/02/04 02:38:25+0000,-35.52,-42.56,-30.99,-44.37,-44.08,-52.50
2023/02/04 02:39:18+0000,-35.41,-43.62,-30.94,-41.27,-44.48,-52.92
2023/02/04 02:40:10+0000,-35.46,-43.53,-30.94,-42.52,-43.77,-53.05
2023/02/04 02:41:09+0000,-35.18,-43.74,-30.80,-41.84,-43.66,-52.50
2023/02/04 02:42:01+0000,-35.95,-43.44,-30.71,-43.54,-43.69,-53.06
2023/02/04 02:42:53+0000,-35.34,-45.36,-31.46,-42.64,-43.88,-53.01
2023/02/04 02:43:45+0000,-35.69,-42.95,-30.85,-41.80,-43.56,-53.29
2023/02/04 02:44:37+0000,-34.25,-44.45,-30.59,-43.04,-44.15,-52.85
2023/02/04 02:45:29+0000,-33.42,-43.14,-30.96,-43.41,-43.72,-52.89
2023/02/04 02:46:21+0000,-35.46,-43.91,-31.35,-43.14,-44.60,-52.76
2023/02/04 02:47:13+0000,-35.82,-44.32,-31.12,-44.26,-43.91,-52.59
2023/02/04 02:48:05+0000,-35.39,-44.18,-30.99,-44.31,-44.02,-53.31
2023/02/04 02:48:57+0000,-34.62,-43.17,-30.55,-43.95,-44.26,-53.26
2023/02/04 02:49:49+0000,-35.03,-43.71,-30.67,-44.30,-44.52,-52.68
2023/02/04 02:50:41+0000,-34.49,-43.49,-30.63,-42.43,-44.05,-52.93
2023/02/04 02:51:41+0000,-35.00,-45.18,-30.78,-45.66,-43.41,-53.31
2023/02/04 02:52:33+0000,-34.88,-41.30,-30.49,-46.13,-44.42,-53.22
2023/02/04 02:53:25+0000,-35.95,-43.10,-30.51,-46.56,-44.29,-53.08
2023/02/04 02:54:17+0000,-35.61,-43.95,-30.47,-45.31,-44.56,-52.94
2023/02/04 02:55:09+0000,-35.07,-43.85,-31.02,-45.92,-44.83,-53.84
2023/02/04 02:56:01+0000,-34.86,-42.06,-30.83,-46.35,-44.31,-52.73
2023/02/04 02:56:53+0000,-35.13,-46.15,-30.74,-46.04,-44.98,-53.60
2023/02/04 02:57:45+0000,-34.92,-44.21,-31.38,-44.62,-44.66,-53.66
2023/02/04 02:58:37+0000,-35.29,-45.58,-30.32,-44.80,-44.52,-52.71
2023/02/04 02:59:29+0000,-35.71,-42.71,-30.67,-46.12,-44.18,-52.51
2023/02/04 03:00:21+0000,-35.33,-44.67,-30.66,-45.78,-44.61,-53.00
2023/02/04 03:01:22+0000,-33.53,-45.14,-30.68,-45.29,-44.52,-53.01
2023/02/04 03:02:14+0000,-35.54,-44.40,-29.74,-44.42,-44.54,-52.31
2023/02/04 03:03:06+0000,-35.18,-45.03,-30.47,-44.63,-45.05,-52.21
2023/02/04 03:03:58+0000,-36.37,-44.21,-30.26,-44.96,-44.91,-52.22
2023/02/04 03:04:50+0000,-35.43,-44.71,-30.26,-44.67,-44.61,-52.81
2023/02/04 03:05:42+0000,-35.66,-44.36,-29.80,-44.03,-44.70,-51.90
2023/02/04 03:06:34+0000,-35.00,-42.38,-30.70,-45.49,-44.85,-51.64
2023/02/04 03:07:26+0000,-35.58,-42.88,-30.09,-42.82,-45.19,-51.38
2023/02/04 03:08:18+0000,-36.18,-44.71,-30.00,-43.18,-44.73,-51.35
2023/02/04 03:09:10+0000,-35.07,-43.31,-30.10,-43.62,-44.89,-51.29
2023/02/04 03:10:02+0000,-34.97,-44.25,-30.79,-42.28,-44.57,-51.78
2023/02/04 03:11:03+0000,-35.00,-44.74,-31.17,-42.25,-44.50,-50.85
2023/02/04 03:11:55+0000,-34.64,-43.91,-30.15,-41.79,-43.87,-50.79
2023/02/04 03:12:47+0000,-35.55,-42.03,-31.02,-42.16,-44.99,-51.24
2023/02/04 03:13:39+0000,-35.67,-42.84,-30.72,-42.25,-44.62,-51.90
2023/02/04 03:14:31+0000,-35.69,-43.19,-30.73,-41.96,-44.57,-51.30
2023/02/04 03:15:23+0000,-35.86,-43.76,-30.55,-41.52,-44.40,-51.22
2023/02/04 03:16:15+0000,-35.83,-43.61,-30.89,-41.92,-44.65,-52.22
2023/02/04 03:17:07+0000,-35.16,-45.81,-30.50,-41.87,-44.48,-52.35
2023/02/04 03:17:59+0000,-32.19,-43.06,-31.02,-42.15,-44.30,-52.02
2023/02/04 03:18:51+0000,-35.78,-45.85,-30.29,-41.44,-44.62,-52.09
2023/02/04 03:19:43+0000,-36.05,-42.30,-30.89,-42.91,-44.00,-52.16
2023/02/04 03:20:35+0000,-35.42,-44.75,-30.66,-42.56,-44.23,-52.00
2023/02/04 03:21:34+0000,-35.07,-42.99,-29.98,-43.20,-44.98,-51.71
2023/02/04 03:22:26+0000,-36.09,-45.23,-30.70,-42.20,-44.55,-51.79
2023/02/04 03:23:18+0000,-35.30,-43.25,-30.99,-43.39,-44.77,-51.23
2023/02/04 03:24:10+0000,-35.60,-43.57,-30.00,-41.88,-44.50,-51.50
2023/02/04 03:25:02+0000,-35.92,-44.32,-30.44,-42.35,-44.50,-51.28
2023/02/04 03:25:55+0000,-34.75,-44.12,-30.15,-42.37,-44.59,-51.19
2023/02/04 03:26:47+0000,-35.63,-43.09,-30.95,-41.62,-44.84,-51.29
2023/02/04 03:27:39+0000,-34.81,-43.41,-29.77,-42.20,-44.50,-51.41
2023/02/04 03:28:31+0000,-35.74,-44.43,-31.22,-41.81,-44.95,-51.28
2023/02/04 03:29:23+0000,-35.82,-44.97,-30.78,-41.54,-45.13,-51.40
2023/02/04 03:30:15+0000,-35.76,-43.60,-30.79,-43.11,-45.01,-50.91
2023/02/04 03:31:16+0000,-36.31,-43.70,-30.33,-43.36,-45.52,-51.57
2023/02/04 03:32:08+0000,-30.50,-43.86,-30.78,-43.31,-45.21,-51.27
2023/02/04 03:33:00+0000,-35.91,-45.22,-30.89,-42.76,-44.70,-51.25
2023/02/04 03:33:52+0000,-34.93,-45.88,-30.52,-42.62,-45.18,-50.93
2023/02/04 03:34:44+0000,-35.58,-43.74,-31.02,-42.98,-45.07,-51.48
2023/02/04 03:35:36+0000,-33.69,-45.80,-29.83,-42.77,-44.91,-51.76
2023/02/04 03:36:28+0000,-34.63,-45.30,-31.15,-42.27,-44.62,-52.10
2023/02/04 03:37:20+0000,-35.75,-43.71,-31.07,-43.35,-44.85,-51.47
2023/02/04 03:38:12+0000,-35.87,-44.41,-32.22,-42.96,-44.63,-51.72
2023/02/04 03:39:05+0000,-35.87,-44.27,-30.12,-43.38,-45.44,-51.37
2023/02/04 03:39:57+0000,-35.57,-42.78,-30.86,-43.81,-45.04,-51.52
2023/02/04 03:40:49+0000,-34.93,-43.14,-31.09,-43.53,-45.23,-51.13
2023/02/04 03:41:49+0000,-35.58,-44.29,-30.86,-43.14,-45.38,-51.02
2023/02/04 03:42:41+0000,-35.74,-42.67,-30.94,-42.69,-44.72,-50.37
2023/02/04 03:43:33+0000,-35.85,-42.77,-31.46,-42.69,-45.06,-50.97
2023/02/04 03:44:25+0000,-36.33,-42.86,-30.36,-43.47,-45.65,-50.83
2023/02/04 03:45:17+0000,-36.52,-44.00,-30.76,-42.42,-44.86,-50.17
2023/02/04 03:46:09+0000,-35.88,-42.70,-31.08,-43.53,-45.27,-51.32
2023/02/04 03:47:01+0000,-36.87,-42.85,-31.21,-43.33,-45.59,-51.10
2023/02/04 03:47:53+0000,-35.45,-46.26,-30.69,-43.17,-44.77,-51.06
2023/02/04 03:48:45+0000,-35.28,-44.15,-31.00,-43.44,-45.09,-50.80
2023/02/04 03:49:37+0000,-36.34,-45.44,-31.40,-42.44,-45.78,-51.72
2023/02/04 03:50:29+0000,-35.52,-41.50,-30.64,-43.15,-44.48,-51.09
2023/02/04 03:51:28+0000,-35.63,-41.65,-31.11,-43.13,-45.01,-50.74
2023/02/04 03:52:21+0000,-35.62,-44.00,-30.24,-43.44,-45.57,-51.04
2023/02/04 03:53:13+0000,-35.90,-43.75,-30.53,-43.05,-46.23,-51.12
2023/02/04 03:54:05+0000,-34.98,-43.15,-30.74,-45.13,-45.76,-50.43
2023/02/04 03:54:57+0000,-36.36,-43.70,-30.85,-44.94,-45.36,-50.98
2023/02/04 03:55:49+0000,-36.09,-43.61,-30.48,-44.43,-45.45,-50.71
2023/02/04 03:56:41+0000,-35.82,-42.60,-30.77,-44.68,-46.24,-49.96
2023/02/04 03:57:33+0000,-36.13,-43.91,-30.21,-44.97,-45.99,-50.51
2023/02/04 03:58:25+0000,-36.73,-43.65,-30.48,-44.85,-45.92,-51.07
2023/02/04 03:59:17+0000,-35.74,-41.97,-30.61,-45.32,-45.30,-50.92
2023/02/04 04:00:09+0000,-35.64,-42.64,-30.08,-45.83,-45.14,-50.84
2023/02/04 04:01:09+0000,-35.59,-42.33,-30.32,-45.20,-45.55,-51.20
2023/02/04 04:02:01+0000,-36.15,-44.88,-30.69,-45.28,-44.85,-51.32
2023/02/04 04:02:53+0000,-33.97,-44.68,-30.36,-45.67,-45.48,-50.46
2023/02/04 04:03:45+0000,-36.27,-42.46,-30.25,-45.06,-45.48,-50.45
2023/02/04 04:04:37+0000,-35.40,-42.06,-30.07,-45.25,-45.33,-51.21
2023/02/04 04:05:29+0000,-36.01,-44.87,-30.16,-44.14,-45.43,-50.90
2023/02/04 04:06:21+0000,-35.88,-45.05,-30.79,-44.66,-44.98,-50.95
2023/02/04 04:07:13+0000,-36.54,-42.02,-30.18,-45.84,-45.02,-50.95
2023/02/04 04:08:05+0000,-35.27,-45.47,-30.66,-45.14,-44.61,-50.99
2023/02/04 04:08:57+0000,-36.25,-44.16,-31.69,-46.15,-44.99,-51.04
2023/02/04 04:09:50+0000,-35.53,-41.44,-30.56,-45.64,-44.92,-51.39
2023/02/04 04:10:42+0000,-35.85,-42.42,-30.60,-45.46,-44.87,-51.47
2023/02/04 04:11:41+0000,-36.17,-40.89,-30.81,-45.29,-44.30,-50.87
2023/02/04 04:12:33+0000,-35.00,-42.14,-31.33,-46.00,-44.63,-51.68
2023/02/04 04:13:25+0000,-36.06,-43.86,-30.88,-45.04,-44.43,-51.77
2023/02/04 04:14:17+0000,-34.99,-42.42,-30.51,-45.42,-44.85,-50.77
2023/02/04 04:15:10+0000,-35.92,-42.63,-30.50,-45.06,-45.22,-50.86
2023/02/04 04:16:02+0000,-35.70,-44.11,-30.91,-45.90,-44.16,-51.13
2023/02/04 04:16:54+0000,-35.88,-44.67,-30.55,-45.51,-44.49,-51.32
2023/02/04 04:17:46+0000,-35.91,-42.90,-30.12,-45.81,-44.52,-51.51
2023/02/04 04:18:38+0000,-35.20,-43.24,-30.27,-46.48,-44.73,-51.00
2023/02/04 04:19:30+0000,-36.06,-42.95,-30.36,-45.28,-44.55,-51.53
2023/02/04 04:20:22+0000,-35.38,-44.92,-30.07,-44.91,-45.39,-50.15
2023/02/04 04:21:21+0000,-33.91,-44.91,-30.42,-44.67,-44.68,-50.02
2023/02/04 04:22:13+0000,-35.61,-41.96,-30.74,-45.72,-44.98,-51.24
2023/02/04 04:23:05+0000,-34.90,-43.04,-30.01,-46.02,-45.09,-51.41
2023/02/04 04:23:57+0000,-34.65,-42.22,-30.52,-45.71,-44.36,-50.46
2023/02/04 04:24:49+0000,-33.82,-43.87,-30.01,-45.82,-44.75,-51.27
2023/02/04 04:25:41+0000,-35.30,-43.03,-31.11,-45.62,-44.61,-51.05
2023/02/04 04:26:33+0000,-35.46,-43.82,-31.00,-46.00,-45.42,-51.03
2023/02/04 04:27:25+0000,-34.61,-44.08,-30.67,-46.40,-44.92,-50.59
2023/02/04 04:28:17+0000,-33.94,-41.48,-30.71,-45.02,-44.96,-51.73
2023/02/04 04:29:09+0000,-34.84,-44.98,-30.37,-45.01,-44.78,-50.88
2023/02/04 04:30:01+0000,-35.90,-44.15,-30.03,-45.73,-44.31,-50.74
2023/02/04 04:31:00+0000,-36.02,-42.71,-29.74,-46.36,-44.63,-50.64
2023/02/04 04:31:52+0000,-35.18,-44.39,-30.91,-45.84,-44.06,-51.44
2023/02/04 04:32:44+0000,-34.44,-44.67,-30.44,-46.17,-44.42,-51.04
2023/02/04 04:33:36+0000,-32.81,-45.46,-30.39,-45.89,-44.44,-51.14
2023/02/04 04:34:28+0000,-34.68,-43.21,-30.85,-45.97,-44.36,-51.58
2023/02/04 04:35:20+0000,-34.77,-43.14,-30.32,-46.22,-44.20,-51.28
2023/02/04 04:36:12+0000,-35.55,-41.98,-30.11,-45.51,-44.32,-51.44
2023/02/04 04:37:04+0000,-35.47,-42.86,-30.40,-45.66,-43.59,-51.12
2023/02/04 04:37:56+0000,-35.19,-44.00,-30.44,-45.31,-43.94,-51.09
2023/02/04 04:38:48+0000,-34.43,-42.74,-30.42,-46.19,-43.78,-51.28
2023/02/04 04:39:41+0000,-35.62,-43.03,-30.94,-45.33,-44.07,-51.12
2023/02/04 04:40:33+0000,-34.87,-43.81,-30.22,-45.82,-44.08,-51.61
2023/02/04 04:41:32+0000,-35.28,-43.37,-30.57,-46.60,-44.36,-51.38
2023/02/04 04:42:24+0000,-35.34,-43.80,-31.22,-45.65,-44.31,-50.95
2023/02/04 04:43:16+0000,-36.73,-42.33,-31.19,-46.86,-43.73,-52.05
2023/02/04 04:44:08+0000,-36.55,-44.59,-30.18,-43.38,-43.67,-51.70
2023/02/04 04:45:00+0000,-35.72,-43.01,-30.91,-44.34,-44.48,-51.46
2023/02/04 04:45:52+0000,-34.41,-43.61,-30.35,-44.58,-44.56,-52.07
2023/02/04 04:46:44+0000,-35.62,-42.79,-30.99,-44.03,-43.80,-52.00
2023/02/04 04:47:36+0000,-35.35,-45.02,-30.61,-44.40,-43.34,-51.97
2023/02/04 04:48:28+0000,-31.96,-43.28,-30.68,-43.87,-44.01,-51.90
2023/02/04 04:49:20+0000,-32.74,-41.84,-30.97,-45.10,-44.23,-51.90
2023/02/04 04:50:12+0000,-35.14,-42.61,-30.35,-44.37,-43.79,-52.24
2023/02/04 04:51:12+0000,-36.17,-42.84,-30.29,-44.53,-44.60,-52.05
2023/02/04 04:52:04+0000,-35.74,-43.59,-30.19,-43.87,-44.40,-52.04
2023/02/04 04:52:56+0000,-32.98,-43.21,-30.74,-43.90,-43.81,-51.64
2023/02/04 04:53:48+0000,-35.98,-43.47,-30.53,-44.22,-44.02,-51.77
2023/02/04 04:54:40+0000,-35.35,-42.74,-30.77,-44.34,-44.44,-52.25
2023/02/04 04:55:32+0000,-35.53,-41.82,-30.79,-44.49,-44.23,-52.63
2023/02/04 04:56:24+0000,-35.49,-43.15,-30.91,-44.34,-43.94,-51.82